Weather History for KVNY - November, 2012

Change the Weather History Date:

Wednesday, November 28, 2012

  Actual Average Record
Temperature  
Mean Temperature 58 °F -  
Max Temperature 64 °F 66 °F 82 °F (2014)
Min Temperature 53 °F 44 °F 41 °F (2001)
Degree Days  
Heating Degree Days 6    
Growing Degree Days 8 (Base 50)    
Moisture  
Dew Point 50 °F    
Average Humidity 80    
Maximum Humidity 94    
Minimum Humidity 54    
Precipitation  
Precipitation 0.01 in - - ()
Sea Level Pressure  
Sea Level Pressure 30.15 in    
Wind  
Wind Speed 3 mph (SE)    
Max Wind Speed 10 mph    
Max Gust Speed -    
Visibility 6 miles    
Events Rain    
Averages and records for this station are not official NWS values.
T = Trace of Precipitation, MM = Missing Value Source: NWS Daily Summary

Daily Weather History Graph

Daily Weather History Graph

Search for Another Location

Airport or City:

Trip Planner

Search our weather history database for the weather conditions in past years. The results will help you decide how hot, cold, wet, or windy it might be!

Date:

Astronomy

Nov. 28, 2012 Rise Set
Actual Time 6:39 AM PST 4:44 PM PST
Civil Twilight 6:12 AM PST 5:11 PM PST
Nautical Twilight 5:41 AM PST 5:42 PM PST
Astronomical Twilight 5:11 AM PST 6:12 PM PST
Moon 5:03 PM PST (11/28) 6:41 AM PST (11/28)
Length of Visible Light 10h 59m
Length of Day
10h 05m
Full, 100% of the Moon is Illuminated
Nov 28
Full
Dec 6
Last Quarter
Dec 13
New
Dec 19
First Quarter
Dec 28
Full

Hourly Weather History & Observations

Time (PST) Temp. Dew Point Humidity Pressure Visibility Wind Dir Wind Speed Gust Speed Precip Events Conditions
12:51 AM 55.0 °F 51.1 °F 86% 30.10 in 4.0 mi Calm Calm - N/A   Overcast
1:51 AM 54.0 °F 51.1 °F 90% 30.10 in 4.0 mi SE 5.8 mph - N/A   Overcast
2:48 AM 53.6 °F 51.8 °F 94% 30.14 in 5.0 mi Calm Calm - N/A   Overcast
2:51 AM 54.0 °F 51.1 °F 90% 30.12 in 5.0 mi Calm Calm - N/A   Overcast
3:10 AM 53.6 °F 50.0 °F 88% 30.14 in 5.0 mi Calm Calm - N/A   Overcast
3:51 AM 54.0 °F 50.0 °F 86% 30.11 in 5.0 mi NNE 3.5 mph - N/A   Overcast
4:51 AM 54.0 °F 50.0 °F 86% 30.09 in 4.0 mi ENE 4.6 mph - N/A   Overcast
5:51 AM 54.0 °F 48.9 °F 83% 30.11 in 3.0 mi East 5.8 mph - N/A   Haze
6:51 AM 55.0 °F 48.9 °F 80% 30.14 in 3.0 mi Calm Calm - N/A   Haze
7:19 AM 55.4 °F 48.2 °F 77% 30.16 in 3.0 mi Calm Calm - N/A   Haze
7:51 AM 55.0 °F 48.9 °F 80% 30.17 in 6.0 mi Calm Calm - N/A   Haze
8:51 AM 55.9 °F 48.9 °F 77% 30.20 in 6.0 mi West 4.6 mph - N/A   Haze
9:51 AM 57.9 °F 48.9 °F 72% 30.17 in 5.0 mi Variable 5.8 mph - N/A   Haze
10:51 AM 59.0 °F 48.0 °F 67% 30.17 in 6.0 mi Calm Calm - N/A   Haze
11:51 AM 62.1 °F 48.0 °F 60% 30.14 in 6.0 mi NNE 3.5 mph - N/A   Haze
12:51 PM 64.9 °F 48.0 °F 54% 30.11 in 8.0 mi Variable 5.8 mph - N/A   Partly Cloudy
1:51 PM 62.1 °F 48.0 °F 60% 30.09 in 10.0 mi SE 8.1 mph - 0.00 in   Overcast
2:51 PM 62.1 °F 48.9 °F 62% 30.12 in 7.0 mi South 10.4 mph - N/A   Overcast
3:51 PM 61.0 °F 48.9 °F 64% 30.12 in 7.0 mi South 6.9 mph - 0.00 in   Overcast
4:51 PM 60.1 °F 48.0 °F 64% 30.13 in 8.0 mi Variable 3.5 mph - N/A   Overcast
5:51 PM 60.1 °F 48.9 °F 67% 30.14 in 10.0 mi Calm Calm - N/A   Overcast
6:32 PM 57.2 °F 50.0 °F 77% 30.16 in 10.0 mi South 5.8 mph - N/A   Overcast
6:51 PM 57.9 °F 51.1 °F 78% 30.15 in 9.0 mi South 5.8 mph - 0.00 in   Light Drizzle
7:51 PM 57.0 °F 52.0 °F 83% 30.17 in 10.0 mi SSW 3.5 mph - 0.00 in   Overcast
8:46 PM 55.4 °F 53.6 °F 94% 30.18 in 5.0 mi Calm Calm - 0.00 in Rain Light Rain
8:47 PM 55.9 °F 53.1 °F 90% 30.17 in 5.0 mi Calm Calm - 0.01 in Rain Light Rain
9:07 PM 57.2 °F 53.6 °F 88% 30.19 in 5.0 mi SSE 4.6 mph - 0.00 in Rain Light Rain
9:51 PM 55.9 °F 54.0 °F 93% 30.18 in 3.0 mi SE 5.8 mph - 0.00 in   Overcast
10:21 PM 55.4 °F 53.6 °F 94% 30.19 in 2.5 mi ESE 6.9 mph - N/A   Overcast
10:40 PM 55.4 °F 53.6 °F 94% 30.19 in 1.8 mi SE 8.1 mph - 0.01 in   Overcast
11:24 PM 55.4 °F 53.6 °F 94% 30.19 in 2.0 mi SE 5.8 mph - N/A   Overcast